{"data":{"norad_id":60536,"epoch":"2026-05-25T05:09:45.631008Z","epoch_age_seconds":56703,"freshness":"FRESH","line1":"1 60536U 24149BW  26145.21511147  .00010538  00000+0  63972-3 0  9996","line2":"2 60536  97.6878 228.0053 0002606 158.2291 201.9049 15.10698331 97018","mean_motion":15.10698331,"eccentricity":0.0002606,"inclination_deg":97.6878,"raan_deg":228.0053,"arg_perigee_deg":158.2291,"mean_anomaly_deg":201.9049,"bstar":0.00063972,"rev_number":9701,"period_min":95.320155616165,"perigee_km":532.26771715435,"apogee_km":535.87035894138,"semimajor_km":6912.2060380479,"source":"CELESTRAK","updated_at":"2026-05-25T13:38:13.535813Z"}}